Station 44008 (LLNR 827) - NANTUCKET 54 NM Southeast of Nantucket Image indicating link to RSS feed of recent meteorological observations for station 44008

Nantucket Shoals LB "N"


Conditions at 44008 as of
(6:10 am EDT)
1010 GMT on 06/17/2024:
     

Click on the graph icon in the table below to see a time series plot of the last five days of that observation.

5-day plot - Wind Direction Wind Direction (WDIR): SE ( 130 deg true )
5-day plot - Wind Speed Wind Speed (WSPD):2.0 m/s
5-day plot - Wind Gust Wind Gust (GST):3.0 m/s
5-day plot - Wave Height Wave Height (WVHT): 0.6 m
5-day plot - Average Wave Period Average Period (APD): 5.9 sec
5-day plot - Mean Wave Direction Mean Wave Direction (MWD): S ( 180 deg true )
5-day plot - Atmospheric Pressure Atmospheric Pressure (PRES):1024.9 mb
5-day plot - Water Temperature Water Temperature (WTMP): 15.3 °C
5-day plot - Wind Speed at 10 Meters Wind Speed at 10 meters (WSPD10M): 2 m/s
5-day plot - Wind Speed at 20 Meters Wind Speed at 20 meters (WSPD20M): 3 m/s
5-day plot -  Wind Speed, Wind Gust and Atmospheric Pressure Combined plot of Wind Speed, Gust, and Air Pressure
Supplemental Measurements
Highest 1-minute Wind Speed
Time (EDT)5-day plot - 1-Minute Wind Speed WSPD 5-day plot - 1-Minute Wind Direction WDIR
6:07 am 2 m/s-
Previous observations
TIME
(EDT)
5-day plot - Wind Direction
WDIR
 
5-day plot - Wind Speed
WSPD
m/s
5-day plot - Wind Gust
GST
m/s
5-day plot - Wave Height
WVHT
m
5-day plot - Dominant Wave Period
DPD
sec
5-day plot - Average Wave Period
APD
sec
5-day plot - Mean Wave Direction
MWD
 
5-day plot - Atmospheric Pressure
PRES
mb
5-day plot - Pressure Tendency
PTDY
mb
5-day plot - Air Temperature
ATMP
°C
5-day plot - Water Temperature
WTMP
°C
5-day plot - Dew Point
DEWP
°C
5-day plot - Salinity
SAL
psu
5-day plot - Visibility
VIS
km
5-day plot - Tide (above MLLW)
TIDE
m
2024-06-17 06:00 am SE 2.0 3.0----1025.0 +1.0- 15.0----
2024-06-17 05:50 am SE 2.0 3.0 0.6 136.0 SE1024.9-- 15.1----
2024-06-17 05:40 am SE 2.0 3.0----1024.8-- 15.3----
2024-06-17 05:30 am SE 3.0 3.0----1024.6-- 15.2----
2024-06-17 05:20 am SE 2.0 3.0 0.6 75.6 S1024.5-- 15.0----
2024-06-17 05:10 amSSE 2.0 3.0 0.6-5.6 S1024.7-- 15.1----
2024-06-17 05:00 amSSE 2.0 3.0----1024.9 +0.9- 14.6----
2024-06-17 04:50 am SE 1.0 2.0 0.6 75.6 S1024.8-- 14.4----
2024-06-17 04:40 am SE 1.0 2.0 0.6-5.6 S1024.9-- 14.7----
2024-06-17 04:30 am SE 2.0 3.0----1024.7-- 14.9----
2024-06-17 04:20 am SE 2.0 2.0 0.6 75.5SSE1024.6-- 14.6----
2024-06-17 04:10 amSSE 2.0 3.0 0.6-5.5SSE1024.5-- 14.7----
2024-06-17 04:00 amSSE 2.0 3.0----1024.5 +0.4- 14.6----
2024-06-17 03:50 amSSE 2.0 3.0 0.6 75.4 S1024.4-------
2024-06-17 03:40 amSSE 2.0 3.0----1024.3-- 14.2----
2024-06-17 03:30 am SE 2.0 3.0----1024.3-- 14.2----
2024-06-17 03:20 am SE 2.0 3.0 0.7 75.5SSE1024.3-- 14.0----
2024-06-17 03:10 am SE 3.0 4.0 0.7-5.5SSE1024.2-- 14.2----
2024-06-17 03:00 am SE 3.0 3.0----1024.0 +0.0- 14.2----
2024-06-17 02:50 am SE 3.0 3.0 0.7 85.6SSE1024.2-- 14.2----
2024-06-17 02:40 amSSE 3.0 3.0----1024.0-- 14.2----
2024-06-17 02:30 am SE 2.0 2.0----1024.2-- 14.2----
2024-06-17 02:20 amSSE 2.0 3.0 0.6 135.5ESE1024.2-- 14.2----
2024-06-17 02:10 am SE 2.0 3.0 0.6-5.5ESE1024.1-- 14.1----
2024-06-17 02:00 amSSE 2.0 3.0----1024.0 +0.0- 14.1----
2024-06-17 01:50 am SE 2.0 3.0 0.7 75.7 S1024.0-- 14.1----
2024-06-17 01:40 am SE 2.0 3.0----1024.0-- 14.0----
2024-06-17 01:30 am SE 2.0 3.0----1023.9-- 13.9----
2024-06-17 01:20 am SE 2.0 2.0 0.8 85.6SSE1024.1-- 13.9----
2024-06-17 01:10 amSSE 1.0 2.0 0.8-5.6SSE1024.2-- 14.1----
2024-06-17 01:00 amSSE 2.0 2.0----1024.1 +0.0- 14.4----
2024-06-17 12:50 amSSE 2.0 2.0 0.7 75.7 SE1024.0-- 14.7----
2024-06-17 12:40 amSSE 2.0 2.0 0.7-5.7 SE1024.1-- 14.8----
2024-06-17 12:30 amSSE 1.0 2.0----1024.3-- 14.9----
2024-06-17 12:20 am S 2.0 2.0 0.7 85.7 S1024.2-- 14.8----
2024-06-17 12:10 amSSE 2.0 3.0 0.7-5.7 S1024.2-- 14.8----
2024-06-17 12:00 am SE 2.0 3.0----1024.0 +0.0- 14.9----
2024-06-16 11:50 pmSSE 2.0 3.0 0.7 85.8 S1024.0-- 15.1----
2024-06-16 11:40 pm SE 2.0 3.0 0.7-5.8 S1023.9-- 14.7----
2024-06-16 11:30 pm SE 2.0 3.0----1023.9-- 14.9----
2024-06-16 11:20 pm SE 2.0 2.0 0.8 85.7 S1024.2-- 15.3----
2024-06-16 11:10 pmESE 2.0 3.0 0.8-5.7 S1024.2-- 16.2----
2024-06-16 11:00 pmESE 2.0 3.0----1024.1 +0.0- 16.1----
2024-06-16 10:50 pmESE 2.0 3.0 0.8 85.8SSE1024.1-- 16.6----
2024-06-16 10:40 pmESE 2.0 3.0----1024.2-- 16.7----
2024-06-16 10:30 pm E 2.0 3.0----1024.3-- 16.7----
2024-06-16 10:20 pm E 3.0 4.0 0.8 85.7SSE1024.2-- 16.7----
2024-06-16 10:10 pm E 3.0 4.0 0.8-5.7SSE1024.2-- 16.7----
2024-06-16 10:00 pm E 3.0 4.0----1024.3 +0.3- 16.6----
2024-06-16 09:50 pm E 3.0 4.0 0.9 86.0 S1024.3-- 16.5----
2024-06-16 09:40 pm E 3.0 4.0----1024.5-- 16.6----
2024-06-16 09:30 pm E 3.0 4.0----1024.5-- 16.5----
2024-06-16 09:20 pm E 3.0 3.0 0.8 85.8 S1024.5-- 16.4----
2024-06-16 09:10 pm E 3.0 4.0 0.8-5.8 S1024.2-- 16.9----
2024-06-16 09:00 pm E 4.0 5.0----1024.0 +0.5- 16.8----
2024-06-16 08:50 pm E 4.0 4.0 0.9 85.9 S1023.8-- 16.9----
2024-06-16 08:40 pm E 3.0 4.0----1024.0-- 16.9----
2024-06-16 08:30 pm E 2.0 3.0----1024.2-- 17.0----
2024-06-16 08:20 pm E 2.0 3.0 0.8 85.8 S1024.1-- 16.9----
2024-06-16 08:10 pm E 2.0 3.0 0.8-5.8 S1024.0-- 16.6----
2024-06-16 08:00 pm E 2.0 2.0----1024.0 +0.3- 16.7----
2024-06-16 07:50 pm E 2.0 2.0 0.9 85.9 S1024.1-- 16.8----
2024-06-16 07:40 pm E 2.0 2.0----1024.1-- 16.6----
2024-06-16 07:10 pm E 1.0 2.0 0.8-5.9SSE1024.2-- 16.8----
2024-06-16 07:00 pm E 2.0 3.0----1024.0 +0.0- 16.5----
2024-06-16 06:50 pm E 2.0 3.0 0.8 85.9SSE1023.8-- 16.3----
2024-06-16 06:40 pm E 3.0 4.0----1023.8-- 16.6----
2024-06-16 06:30 pm E 3.0 4.0----1023.7-- 16.7----
2024-06-16 06:20 pm E 3.0 4.0 0.9 85.9 S1023.6-- 16.6----
2024-06-16 06:10 pmENE 3.0 4.0----1023.5-- 16.7----
2024-06-16 06:00 pmENE 3.0 4.0----1023.5 +0.0- 16.9----
2024-06-16 05:50 pmENE 3.0 4.0 0.8 85.9 S1023.5-- 16.8----
2024-06-16 05:40 pmENE 4.0 5.0----1023.4-- 16.5----
2024-06-16 05:30 pmENE 4.0 5.0----1023.5-- 16.4----
2024-06-16 05:20 pmENE 4.0 5.0 0.9 85.8 S1023.5-- 16.5----
2024-06-16 05:10 pmENE 4.0 5.0 0.9-5.8 S1023.5-- 16.7----
2024-06-16 05:00 pmENE 4.0 4.0----1023.7 +0.0- 16.2----
2024-06-16 04:50 pmENE 4.0 5.0 0.9 85.7SSE1023.7-- 16.4----
2024-06-16 04:40 pmENE 4.0 5.0 0.9-5.7SSE1023.6-- 15.7----
2024-06-16 04:30 pmENE 4.0 4.0----1023.6-- 15.1----
2024-06-16 04:20 pm NE 4.0 4.0 0.9 85.6 S1023.8-- 15.3----
2024-06-16 04:10 pm NE 4.0 5.0 0.9-5.6 S1023.9-- 14.6----
2024-06-16 04:00 pm NE 4.0 5.0----1023.8 +0.0- 14.3----
2024-06-16 03:50 pm NE 4.0 5.0 1.0 85.8 S1023.7-- 14.3----
2024-06-16 03:40 pm NE 4.0 5.0 1.0-5.8 S1023.6-- 14.6----
2024-06-16 03:30 pm NE 3.0 4.0----1023.7-- 14.6----
2024-06-16 03:20 pmNNE 3.0 4.0 0.9 85.7 S1023.7-- 14.5----
2024-06-16 03:10 pmNNE 3.0 4.0 0.9-5.7 S1023.7-- 14.7----
2024-06-16 03:00 pmNNE 2.0 3.0----1023.7 +0.0- 15.1----
2024-06-16 02:50 pm N 3.0 3.0 0.8 85.7 S1023.7-------
2024-06-16 02:40 pm N 3.0 3.0----1023.7-- 14.7----
2024-06-16 02:30 pm N 3.0 4.0----1023.7-- 14.6----
2024-06-16 02:20 pm N 3.0 4.0 0.8 85.8SSW1023.8-- 14.8----
2024-06-16 02:10 pm N 3.0 4.0 0.8-5.8SSW1023.9-- 14.6----
2024-06-16 02:00 pm N 3.0 4.0----1023.8 -0.3- 14.5----
2024-06-16 01:50 pm N 3.0 4.0 0.8 86.2 S1023.9-- 14.6----
2024-06-16 01:40 pm N 3.0 4.0----1023.7-- 14.5----
2024-06-16 01:30 pm N 3.0 4.0----1023.7-- 14.4----
2024-06-16 01:20 pm N 3.0 4.0 0.8 86.4 S1023.8-- 13.9----
2024-06-16 01:10 pm N 3.0 4.0 0.8-6.4 S1023.8-- 14.1----
2024-06-16 01:00 pm N 3.0 3.0----1023.7 +0.0- 14.3----
2024-06-16 12:50 pm N 3.0 4.0 0.9 96.6 S1023.8-- 14.3----
2024-06-16 12:40 pm N 3.0 4.0----1023.9-- 14.1----
2024-06-16 12:30 pmNNW 3.0 3.0----1024.0-- 13.9----
2024-06-16 12:20 pmNNW 3.0 4.0 0.8 86.7SSE1024.0-- 13.9----
2024-06-16 12:10 pmNNW 3.0 3.0 0.8-6.7SSE1024.0-- 13.7----
2024-06-16 12:00 pmNNW 3.0 3.0----1023.9 +0.8- 13.5----
2024-06-16 11:50 amNNW 3.0 3.0 0.8 96.6 S1023.9-- 13.6----
2024-06-16 11:40 amNNW 3.0 3.0 0.8-6.6 S1024.0-- 13.7----
2024-06-16 11:30 amNNW 3.0 4.0----1024.0-- 13.9----
2024-06-16 11:20 amNNW 3.0 4.0 0.9 96.9 S1024.0-- 13.9----
2024-06-16 11:10 amNNW 3.0 4.0 0.9-6.9 S1024.0-- 13.8----
2024-06-16 11:00 amNNW 3.0 4.0----1024.1 +1.5- 13.8----
2024-06-16 10:50 amNNW 3.0 4.0 0.9 96.9 S1024.1-- 13.8----
2024-06-16 10:40 am NW 3.0 4.0----1024.0-- 13.9----
2024-06-16 10:30 am NW 3.0 5.0----1024.0-- 14.0----
2024-06-16 10:20 amNNW 3.0 5.0 0.9 86.5 S1023.9-- 13.9----
2024-06-16 10:10 amNNW 3.0 4.0 0.9-6.5 S1023.7-- 13.6----
2024-06-16 10:00 amNNW 3.0 4.0----1023.7 +2.2- 13.6----
2024-06-16 09:50 amNNW 3.0 4.0 0.8 86.5 S1023.5-- 13.7----
2024-06-16 09:40 amNNW 3.0 4.0 0.8-6.5 S1023.4-- 13.8----
2024-06-16 09:30 amNNW 3.0 4.0----1023.4-- 13.8----
2024-06-16 09:20 amNNW 3.0 4.0 0.9 96.4 S1023.4-- 13.8----
2024-06-16 09:10 amNNW 3.0 4.0 0.9-6.4 S1023.2-- 13.9----
2024-06-16 09:00 amNNW 3.0 4.0----1023.1 +2.5- 13.8----
2024-06-16 08:50 amNNW 3.0 4.0 0.9 96.5SSE1023.1-- 13.9----
2024-06-16 08:40 amNNW 3.0 4.0----1023.0-- 13.9----
2024-06-16 08:30 amNNW 3.0 4.0----1022.9-- 13.9----
2024-06-16 08:20 amNNW 3.0 5.0 0.8 86.1 S1022.8-- 13.9----
2024-06-16 08:10 amNNW 4.0 5.0 0.8-6.1 S1022.6-- 13.9----
2024-06-16 08:00 amNNW 4.0 5.0----1022.6 +2.5- 13.9----
2024-06-16 07:50 amNNW 4.0 5.0 0.9 86.6 S1022.4-- 13.9----
2024-06-16 07:40 amNNW 4.0 5.0----1022.3-- 13.9----
2024-06-16 07:30 amNNW 4.0 5.0----1022.1-- 13.8----
2024-06-16 07:20 amNNW 3.0 5.0 1.0 86.1 S1021.9-- 13.8----
2024-06-16 07:10 amNNW 3.0 5.0 1.0-6.1 S1021.7-- 13.7----
2024-06-16 07:00 amNNW 4.0 4.0----1021.5 +1.9- 13.6----
2024-06-16 06:50 amNNW 3.0 4.0 1.1 86.4 S1021.2-- 13.6----
2024-06-16 06:40 amNNW 3.0 4.0 1.1-6.4 S1021.1-- 13.6----
2024-06-16 06:30 amNNW 3.0 4.0----1021.0-- 13.6----
2024-06-16 06:20 amNNW 3.0 4.0 1.1 86.3 S1020.9-- 13.7----
2024-06-16 06:10 amNNW 4.0 5.0 1.1-6.3 S1020.8-- 13.7----
2024-06-16 06:00 am N 4.0 5.0----1020.6 +1.2- 13.7----
2024-06-16 05:50 am N 4.0 5.0 1.2 86.6 S1020.6-- 13.7----

Detailed Wave Summary
for 44008 as of (6:10 am EDT)
1010 GMT on 06/17/2024:

These wave data are displayed in rounded times.

     

Click on the graph icon in the table below to see a time series plot of the last five days of that observation.

5-day plot - Significant Wave Height Significant Wave Height (WVHT): 0.6 m
5-day plot - Swell Height Swell Height (SwH): 0.5 m
5-day plot - Swell Period Swell Period (SwP): 7.1 sec
5-day plot - Swell Direction Swell Direction (SwD): S
5-day plot - Wind Wave Height Wind Wave Height (WWH): 0.2 m
5-day plot - Wind Wave Period Wind Wave Period (WWP): 3.8 sec
5-day plot - Wind Wave Direction Wind Wave Direction (WWD): NE
5-day plot - Average Wave Period Average Wave Period (APD): 5.9 sec
Previous observations
TIME
(EDT)
5-day plot - Wave Height
WVHT
m
5-day plot - Swell Height
SwH
m
5-day plot - Swell Period
SwP
sec
5-day plot - Swell Direction
SwD
 
5-day plot - Wind Wave Height
WWH
m
5-day plot - Wind Wave Period
WWP
sec
5-day plot - Wind Wave Direction
WWD
 
5-day plot - Wave Steepness
STEEPNESS
 
5-day plot - Average Wave Period
APD
sec
2024-06-17 05:40 am 0.6 0.6 12.9 SE 0.2 3.8 NE N/A 6.0
2024-06-17 05:10 am 0.6 0.6 6.7 S 0.2 3.6 NE N/A 5.6
2024-06-17 04:40 am 0.6 0.6 6.7 S 0.2 3.7 NNE N/A 5.6
2024-06-17 04:10 am 0.6 0.6 7.1SSE 0.2 3.4 NNE N/A 5.5
2024-06-17 03:40 am 0.6 0.6 7.1 S 0.2 3.7 NNE N/A 5.4
2024-06-17 03:10 am 0.7 0.6 7.1SSE 0.2 4.0 NNE N/A 5.5
2024-06-17 02:40 am 0.7 0.6 7.7SSE 0.2 3.8 N N/A 5.6
2024-06-17 02:10 am 0.6 0.6 12.9ESE 0.2 3.3 N N/A 5.5
2024-06-17 01:40 am 0.7 0.6 7.1 S 0.2 3.6 N N/A 5.7
2024-06-17 01:10 am 0.8 0.7 7.7SSE 0.3 3.1 NNE N/A 5.6
2024-06-17 12:40 am 0.7 0.7 7.1 SE 0.2 3.7 NNE N/A 5.7
2024-06-17 12:10 am 0.7 0.7 7.7 S 0.2 3.7 NNE N/A 5.7
2024-06-16 11:40 pm 0.7 0.7 7.7 S 0.2 4.0 NNE N/A 5.8
2024-06-16 11:10 pm 0.8 0.7 7.7 S 0.2 4.0 N N/A 5.7
2024-06-16 10:40 pm 0.8 0.7 7.7SSE 0.2 3.3 NNE N/A 5.8
2024-06-16 10:10 pm 0.8 0.8 7.7SSE 0.3 3.7 NNE SWELL 5.7
2024-06-16 09:40 pm 0.9 0.9 7.7 S 0.2 3.4 NNE AVERAGE 6.0
2024-06-16 09:10 pm 0.8 0.8 7.7 S 0.2 3.7 NNE SWELL 5.8
2024-06-16 08:40 pm 0.9 0.8 7.7 S 0.2 3.7 N AVERAGE 5.9
2024-06-16 08:10 pm 0.8 0.8 7.7 S 0.2 3.0 NNE SWELL 5.8
2024-06-16 07:40 pm 0.9 0.8 7.7 S 0.2 3.8 NNE AVERAGE 5.9
2024-06-16 07:10 pm 0.8 0.8 8.3SSE 0.2 3.4 NNE SWELL 5.9
2024-06-16 06:40 pm 0.8 0.8 8.3SSE 0.2 3.3 N SWELL 5.9
2024-06-16 06:10 pm 0.9 0.8 8.3 S 0.2 3.4 NNE SWELL 5.9
2024-06-16 05:40 pm 0.8 0.8 8.3 S 0.2 3.8 N SWELL 5.9
2024-06-16 05:10 pm 0.9 0.9 8.3 S 0.2 3.6 N SWELL 5.8
2024-06-16 04:40 pm 0.9 0.8 8.3SSE 0.2 3.6 NNE SWELL 5.7
2024-06-16 04:10 pm 0.9 0.9 8.3 S 0.2 3.8 NNE SWELL 5.6
2024-06-16 03:40 pm 1.0 0.9 8.3 S 0.2 3.6 N SWELL 5.8
2024-06-16 03:10 pm 0.9 0.8 8.3 S 0.3 3.1 N SWELL 5.7
2024-06-16 02:40 pm 0.8 0.8 8.3 S 0.3 3.6 N SWELL 5.7
2024-06-16 02:10 pm 0.8 0.7 8.3SSW 0.3 3.6 NNE SWELL 5.8
2024-06-16 01:40 pm 0.8 0.8 8.3 S 0.2 3.8 N SWELL 6.2
2024-06-16 01:10 pm 0.8 0.8 8.3 S 0.2 3.8 N SWELL 6.4
2024-06-16 12:40 pm 0.9 0.8 9.1 S 0.2 3.4 NNE SWELL 6.6
2024-06-16 12:10 pm 0.8 0.8 8.3SSE 0.2 3.4 N SWELL 6.7
2024-06-16 11:40 am 0.8 0.8 9.1 S 0.2 3.7 N N/A 6.6
2024-06-16 11:10 am 0.9 0.9 9.1 S 0.2 3.3 N SWELL 6.9
2024-06-16 10:40 am 0.9 0.9 9.1 S 0.2 3.7 NNW SWELL 6.9
2024-06-16 10:10 am 0.9 0.9 8.3 S 0.2 3.7 NNE SWELL 6.5
2024-06-16 09:40 am 0.8 0.8 8.3 S 0.2 3.3 NNW SWELL 6.5
2024-06-16 09:10 am 0.9 0.9 9.1 S 0.2 3.7 SE SWELL 6.4
2024-06-16 08:40 am 0.9 0.9 9.1SSE 0.2 4.0 E SWELL 6.5
2024-06-16 08:10 am 0.8 0.8 7.7 S 0.2 4.0 NE SWELL 6.1
2024-06-16 07:40 am 0.9 0.9 8.3 S 0.2 3.7 ENE SWELL 6.6
2024-06-16 07:10 am 1.0 0.9 7.7 S 0.3 4.0 E AVERAGE 6.1
2024-06-16 06:40 am 1.1 1.1 8.3 S 0.3 4.0 NNW AVERAGE 6.4
2024-06-16 06:10 am 1.1 1.1 8.3 S 0.3 4.0 NNW AVERAGE 6.3

Plot of wave energy versus frequency (and period)